Regional Weather Roundup
Issued by NWS

Home | Current Version | Previous Version | Text Only | Print | Product List | Glossary Off
Versions: 1 2 3 4 5 6 7 8 9 10 11 12 13 14 15 16 17 18 19 20 21 22 23 24 25 26 27 28 29 30 31 32 33 34 35 36 37 38 39 40 41 42 43 44 45 46 47 48 49 50

000
ASUS43 KFSD 270302
RWRSD

WEATHER ROUNDUP FOR SOUTH DAKOTA
NATIONAL WEATHER SERVICE SIOUX FALLS SD
900 PM CST WED NOV 26 2014

NOTE: "FAIR" INDICATES FEW OR NO CLOUDS BELOW 12,000 FEET WITH NO
SIGNIFICANT WEATHER AND/OR OBSTRUCTIONS TO VISIBILITY.


SDZ001>005-009-010-012>017-270400-
NORTHWEST AND NORTH CENTRAL SOUTH DAKOTA

CITY           SKY/WX    TMP DP  RH WIND       PRES   REMARKS
BUFFALO          N/A     20  16  84 SE5       30.23R WCI  13
FAITH            N/A     17  13  84 E7        30.33S WCI   8
MOBRIDGE       PTCLDY     4  -1  80 E12       30.41S WCI -12
$$

SDZ012>016-024>037-041>051-057-063-072>074-270400-
SOUTHWEST AND SOUTH CENTRAL SOUTH DAKOTA

CITY           SKY/WX    TMP DP  RH WIND       PRES   REMARKS
RAPID CTY ARPT LGT SNOW  28  25  88 E3        30.27F FOG
PIERRE         CLOUDY    15  10  80 NE9       30.41R WCI   3
CUSTER         CLOUDY    23  19  85 SW5       30.16S WCI  17
ELLSWORTH AFB  MIX PCPN  28  26  93 SE3       30.27
PHILIP         MOCLDY    20  15  81 E10       30.36R WCI   9
PINE RIDGE     CLOUDY    29  24  82 CALM      30.29R
WINNER         CLOUDY    19  10  68 E8        30.38S WCI   9
$$

SDZ004>011-016>023-039-040-270400-
NORTHEAST SOUTH DAKOTA

CITY           SKY/WX    TMP DP  RH WIND       PRES   REMARKS
ABERDEEN       CLEAR     -2  -8  76 N7        30.50R WCI -15
WATERTOWN      PTCLDY    -1  -7  75 N9        30.41R WCI -16
SISSETON         N/A     -5 -10  79 N8        30.49R WCI -20
$$

SDZ017-020-022-023-036>040-048>070-270400-
SOUTHEAST SOUTH DAKOTA

CITY           SKY/WX    TMP DP  RH WIND       PRES   REMARKS
SIOUX FALLS    CLOUDY    12   4  70 N14       30.41R WCI  -3
HURON          MOCLDY     6   0  76 N7        30.48R WCI  -6
MITCHELL       CLOUDY    11   4  73 N12       30.47R WCI  -3
YANKTON        MOCLDY    12   7  79 NW8       30.46R WCI   1
$$

ABBREVIATIONS USED IN REMARKS
   TC - TEMPERATURE IN CELSIUS
  WCI - WIND CHILL INDEX
   HX - HEAT INDEX
  VSB - VISIBILITY



USA.gov is the U.S. government's official web portal to all federal, state and local government web resources and services.